STARLINK-37075, 68255

Orbit data source: Space-Track

STARLINK-37075, 68255 is a payload satellite owned by SpaceX/Seattle (US) in LEO that was launched on Tue, 17 Mar 2026 UTC via an FALCON 9 launch vehicle from the Air Force Eastern Test Range (AFETR). Payload-class satellites include a variety of spacecraft equipped with specific instruments for various scientific and technological missions. These include communications satellites like Starlink; space stations such as the ISS; scientific satellites like the Hubble; Earth observation satellites from companies like Planet Labs, Umbra, and HawkEye 360; GPS; miniature CubeSats for education and research; and military/defense satellites.

Loading next visibility...
Identifier
68255, 2026-054Z
Orbit
LEO
Country
Flag of USUS
Related business
Manufacturer
SpaceX/Seattle
Mission
Operational spacecraft
Bus & Motor
STARLINK V2MO, Unknown motor
Mass
575 kg wet, ~530 kg dry
Launch date (UTC)
2026-03-17 (2 months ago)
Launch vehicle
FALCON 9
Launch site
Air Force Eastern Test Range (AFETR)
Object type
Payload
Rocket body
Debris
Shape & HBR
Unknown shape, 17.7 m
Radar Cross Section
RCS unknown

Expand to show TLE details & history
Last TLE update: 7 hours ago

TLE from 7 hours ago
0 STARLINK-37075
1 68255U 26054Z   26145.40816153  .00047611  00000-0  10951-2 0  9996
2 68255  53.1591 297.9925 0002042  86.3258 273.7981 15.42203500 10779
Epoch: 2026-05-25T09:47Z
TLE epoch observation values (Epoch: 2026-05-25T09:47:45.156Z)
Latitude
-0.00004°
Longitude
-91.94207°
Altitude
440.42 km
Speed
7.649 km/s
True Right ascension
19h 51m 58s
True Declination
0° 00' 00"
Sunlit
Object was in full shadow at epoch
Visualization orbit readout
Latitude
Unknown
Longitude
Unknown
Altitude
Unknown
Speed
Unknown
Apparent Right ascension
Unknown
Apparent Declination
Unknown
Sunlit
N/A
Visualization observer readout
Local Sidereal Time
02:09:33
Azimuth
Unknown
Elevation
Unknown
Doppler factor
Unknown
Orbital elements
Apogee altitude
441.258 km
Perigee altitude
438.473 km
Semi-major axis
6,818.002 km
Eccentricity
0.0002
Inclination
53.1591°
RAAN
297.9925°
Arg. of periapsis
86.3258°
True anomaly
273.77475°
Mean anomaly
273.7981°
Eccentric anomaly
273.78643°
Mean motion
3.85529 °/min
Orbital period
93.38 mins
BSTAR
0.0010951
Loading maneuver chart data...
Computing Atmospheric mass density...
Loading historical data...
Loading historical data...
Loading historical data...
Loading historical data...
Loading historical data...
Loading historical data...
Loading historical data...

Documentation

Showing up to 5 results
|